Regional Weather Roundup
Issued by NWS Cleveland, OH

Home | Current Version | Previous Version | Graphics & Text | Print | Product List | Glossary On
Versions: 1 2 3 4 5 6 7 8 9 10 11 12 13 14 15 16 17 18 19 20 21 22 23 24 25 26 27 28 29 30 31 32 33 34 35 36 37 38 39 40 41 42 43 44 45 46 47 48 49 50
000
ASUS41 KCLE 010202
RWRCLE
OHIO REGIONAL WEATHER ROUNDUP
NATIONAL WEATHER SERVICE CLEVELAND, OH
1000 PM EDT FRI OCT 31 2014

NOTE: "FAIR" INDICATES FEW OR NO CLOUDS BELOW 12,000 FEET WITH NO
SIGNIFICANT WEATHER AND/OR OBSTRUCTIONS TO VISIBILITY.

OHZ001>008-015>018-024>027-034-035-043-044-010300-
   NORTHWEST OHIO

CITY           SKY/WX    TMP DP  RH WIND       PRES   REMARKS
DEFIANCE       LGT SNOW  36  28  73 N21G29    30.10R
FINDLAY        FLURRIES  36  32  85 N24G33    30.01R
TOLEDO EXPRESS LGT SNOW  33  31  92 N17G29    30.06R FOG     WCI  22
TOLEDO EXEC    MIX PCPN  36  34  92 N22G35    30.04R
LIMA           LGT SNOW  34  32  92 N21G35    30.02R WCI  22
$$

OHZ009>014-019>023-028>033-038-089-010300-
   NORTHEAST OHIO

CITY           SKY/WX    TMP DP  RH WIND       PRES   REMARKS
CLE-HOPKINS    LGT RAIN  44  40  85 N5        29.94R
CLE-LAKEFRONT  LGT RAIN N/A N/A N/A CALM      29.92R
CUY CO. ARPT   LGT RAIN  45  45 100 E5        29.92R FOG
LORAIN-ELYRIA  LGT RAIN  42  41  96 W3        29.92S FOG
ASHTABULA      LGT RAIN  43  41  93 CALM      29.92R
AKRON-CANTON   LGT RAIN  43  39  86 CALM      29.89S FOG
WOOSTER        LGT RAIN  43  39  86 CALM      29.90S
MANSFIELD      LGT RAIN  39  39 100 NW14G26   29.90R
YOUNGSTOWN     LGT RAIN  42  40  92 E5        29.90R FOG
$$

OHZ042-051>053-060>062-070>072-077>081-010300-
  SOUTHWEST OHIO

CITY           SKY/WX    TMP DP  RH WIND       PRES   REMARKS
CINC-COVINGTON LGT RAIN  38  35  89 N23       29.98R
CINC-LUNKEN    LGT RAIN  40  36  86 N13G23    30.00R
HAMILTON       CLOUDY    38  34  85 N16G26    30.02R
DAYTON         LGT RAIN  37  34  89 N24G32    30.01R
WRIGHT-PAT AFB LGT RAIN  38  34  86 N24G33    29.98R
DAYTON GENERAL CLOUDY    38  34  85 N17G29    29.98R
WILMINGTON     LGT RAIN  38  35  89 N21G26    29.95R
$$

OHZ036-037-039>041-045>050-054>059-063>069-073>076-082>088-010300-
  CENTRAL AND SOUTHEAST OHIO

CITY           SKY/WX    TMP DP  RH WIND       PRES   REMARKS
COLUMBUS       LGT RAIN  41  40  96 N13G21    29.91R
OSU AIRPORT    LGT RAIN  39  35  86 N17G28    29.92R
BOLTON FIELD   LGT RAIN  39  37  93 NW14G29   29.93R
RICKENBACK AFB NOT AVBL
NEWARK         LGT RAIN  42  38  85 N6        29.90R
MARION         MIX PCPN  37  34  89 N21G26    29.95R
LANCASTER      CLOUDY    41  38  89 NW8       29.91R
ZANESVILLE     LGT RAIN  41  39  93 N3        29.89R FOG
NEW PHILLY     LGT RAIN  44  41  89 CALM      29.90S
$$



USA.gov is the U.S. government's official web portal to all federal, state and local government web resources and services.